Regional Weather Roundup
Issued by NWS Sioux Falls, SD

Home | Current Version | Previous Version | Text Only | Print | Product List | Glossary Off
Versions: 1 2 3 4 5 6 7 8 9 10 11 12 13 14 15 16 17 18 19 20 21 22 23 24 25 26 27 28 29 30 31 32 33 34 35 36 37 38 39 40 41 42 43 44 45 46 47 48 49 50

000
ASUS43 KFSD 312010
RWRFSD

WEATHER ROUNDUP FOR SE SOUTH DAKOTA/SW MINNESOTA/NW IOWA
NATIONAL WEATHER SERVICE SIOUX FALLS SD
300 PM CDT WED AUG 31 2016

NOTE: "FAIR" INDICATES FEW OR NO CLOUDS BELOW 12,000 FEET WITH NO
SIGNIFICANT WEATHER AND OR OBSTRUCTIONS TO VISIBILITY.


SDZ038>040-050-052>070-312100-
SOUTHEAST SOUTH DAKOTA

CITY           SKY/WX    TMP DP  RH WIND       PRES   REMARKS
BROOKINGS      SUNNY     79  58  48 VRB6      30.21F
CHAMBERLAIN    PTSUNNY   84  68  57 SE5       30.19F
HURON          MOSUNNY   82  63  52 W6        30.19S
MADISON        FAIR      77  57  50 NE3       30.22F
MITCHELL       MOSUNNY   83  59  44 VRB5      30.20F
SIOUX FALLS    MOSUNNY   83  56  39 E6        30.20F
WINNER         FAIR      85  65  51 SE12      30.19F
YANKTON        MOSUNNY   81  57  44 E8        30.18F
$$

MNZ071-072-080-081-089-090-097-098-312100-
SOUTHWEST MINNESOTA

CITY           SKY/WX    TMP DP  RH WIND       PRES   REMARKS
FAIRMONT       SUNNY     77  58  51 N6        30.20F
JACKSON        SUNNY     77  54  44 N8        30.22F
LUVERNE        SUNNY     79  54  41 NE6       30.22F
MARSHALL       SUNNY     77  58  51 E5        30.21F
MONTEVIDEO     SUNNY     81  61  50 NE7       30.22F
REDWOOD FALLS  SUNNY     78  55  44 CALM      30.20F
TRACY          SUNNY     78  60  54 N6        30.22F
WINDOM         SUNNY     77  57  50 N7        30.22S
WORTHINGTON    SUNNY     77  57  50 NE8       30.22F
$$

IAZ001>003-012>014-020>022-031-032-NEZ013-014-SDZ071-312100-
NORTHWEST IOWA

CITY           SKY/WX    TMP DP  RH WIND       PRES   REMARKS
CHEROKEE       SUNNY     78  58  48 NE6       30.19F
DENISON        SUNNY     77  57  50 NE9G17    30.16F
ESTHERVILLE    SUNNY     76  59  55 VRB7      30.20F
LE MARS        SUNNY     81  57  44 N7        30.20F
ORANGE CITY    SUNNY     79  61  53 N6        30.21F
SHELDON        SUNNY     81  59  47 E7        30.19F
SIOUX CITY     SUNNY     82  59  45 N6        30.18F
SPENCER        SUNNY     79  56  45 N5        30.20F
STORM LAKE     SUNNY     77  59  53 N9        30.20F
$$

ABBREVIATIONS USED IN REMARKS
   TC - TEMPERATURE IN CELSIUS
  WCI - WIND CHILL INDEX
   HX - HEAT INDEX
  VSB - VISIBILITY





USA.gov is the U.S. government's official web portal to all federal, state and local government web resources and services.